Regional Weather Roundup
Issued by NWS Bismarck, ND

Home | Current Version | Previous Version | Text Only | Print | Product List | Glossary On
Versions: 1 2 3 4 5 6 7 8 9 10 11 12 13 14 15 16 17 18 19 20 21 22 23 24 25 26 27 28 29 30 31 32 33 34 35 36 37 38 39 40 41 42 43 44 45 46 47 48 49 50
000
ASUS43 KBIS 252310
RWRBIS

NWR BROADCAST TEXT
NATIONAL WEATHER SERVICE BISMARCK ND
600 PM CDT TUE JUL 25 2017

NOTE: "FAIR" INDICATES FEW OR NO CLOUDS BELOW 12,000 FEET WITH NO
SIGNIFICANT WEATHER AND/OR OBSTRUCTIONS TO VISIBILITY.


CITY           SKY/WX    TMP DP  RH WIND       PRES   REMARKS
WILLISTON      SUNNY     88  43  20 NW13G23   30.00S
MINOT          SUNNY     86  48  26 W20       29.96S
MINOT AFB      SUNNY     84  51  31 NW18G24   29.95R
BISMARCK       MOSUNNY   88  48  25 NW8       29.98S
DICKINSON      CLOUDY    85  45  24 N6        30.03S
GARRISON         N/A     84  47  27 NW16G25   29.98S
HETTINGER ARPT CLOUDY    83  45  26 SE6       30.05F
JAMESTOWN      MOSUNNY   84  54  35 N9        29.95F
HAZEN          FAIR      86  45  23 NW10      30.01S
LINTON           N/A    N/A N/A N/A N8        30.00R
MANDAN         FAIR      84  50  30 NE9       30.00S
STANLEY        FAIR      81  48  32 NW9G21    30.03R
TIOGA          FAIR      82  46  28 N12G21    30.02S
WATFORD CITY   FAIR      86  43  22 N12G17    30.01R
$$

CITY           SKY/WX    TMP DP  RH WIND       PRES   REMARKS
GRAND FORKS    MOSUNNY   85  58  39 W14       29.88R
GRAND FORKS AF SUNNY     82  56  41 NW14      29.90R
DEVILS LAKE    SUNNY     80  56  43 W18       29.95R
FARGO          PTSUNNY   79  70  74 W8        29.90F
CAVALIER       FAIR      77  61  57 W13       29.89S
GRAFTON        FAIR      81  61  50 W14       29.91R
GWINNER        CLEAR     79  72  78 NW5       29.92F
LANGDON        FAIR      75  59  57 NW16G23   29.95R
ROLLA            N/A     73  57  56 NW15G22   29.97R
$$

CITY           SKY/WX    TMP DP  RH WIND       PRES   REMARKS
ABERDEEN       MOSUNNY   82  71  69 N20       29.91S
MOBRIDGE       CLOUDY    84  62  47 NE15      29.93F
BUFFALO          N/A     79  48  33 NE13      30.01S
RAPID CITY     CLOUDY    86  56  35 N18       30.01F
GLASGOW        PTSUNNY   84  41  21 W12       30.04S
SIDNEY         SUNNY     87  44  22 NW9       30.01F
WOLF POINT     MOSUNNY   89  40  17 NW12G18   30.02S
GLENDIVE       MOSUNNY   88  44  21 SW6       30.05S
MILES CITY     CLOUDY    84  38  19 SE5       30.05F
BAKER          CLOUDY    85  37  18 CALM      30.08S
$$

CITY           SKY/WX    TMP DP  RH WIND       PRES   REMARKS
BILLINGS       CLOUDY    74  41  30 E6        30.13F
GREAT FALLS    SUNNY     83  37  19 NE9       30.04F
REGINA         MOSUNNY   79  52  38 NW18G30   29.99R
ESTEVAN        MOSUNNY   79  54  41 NW17      29.99S
$$




USA.gov is the U.S. government's official web portal to all federal, state and local government web resources and services.